owner,sensor,date,latitude,longitude,vertical_datum,mass_concentration_of_oxygen_in_sea_water,qcFlag 
DISL,ioos:station:DISL:MBLA:1,2009-05-01T00:02:00Z,30.4367,-88.0117,3.009,9.14,1111122 
DISL,ioos:station:DISL:MBLA:1,2009-05-01T00:05:00Z,30.4367,-88.0117,2.447,9.39,1111122 
DISL,ioos:station:DISL:MBLA:1,2009-05-01T00:07:00Z,30.4367,-88.0117,1.955,9.4,1111122 
DISL,ioos:station:DISL:MBLA:1,2009-05-01T00:10:00Z,30.4367,-88.0117,1.467,9.66,1111122 
DISL,ioos:station:DISL:MBLA:1,2009-05-01T00:12:00Z,30.4367,-88.0117,0.97,9.72,1111122 
DISL,ioos:station:DISL:MBLA:1,2009-05-01T00:14:00Z,30.4367,-88.0117,0.437,9.68,1111122 
DISL,ioos:station:DISL:MBLA:1,2009-05-01T01:02:00Z,30.4367,-88.0117,2.973,9.17,1111122 
DISL,ioos:station:DISL:MBLA:1,2009-05-01T01:05:00Z,30.4367,-88.0117,2.446,9.55,1111122 
DISL,ioos:station:DISL:MBLA:1,2009-05-01T01:07:00Z,30.4367,-88.0117,1.961,9.8,1111122 
DISL,ioos:station:DISL:MBLA:1,2009-05-01T01:10:00Z,30.4367,-88.0117,1.565,9.89,1111122 
DISL,ioos:station:DISL:MBLA:1,2009-05-01T01:12:00Z,30.4367,-88.0117,0.875,9.99,1111122 
DISL,ioos:station:DISL:MBLA:1,2009-05-01T01:15:00Z,30.4367,-88.0117,0.411,9.85,1111122 
DISL,ioos:station:DISL:MBLA:1,2009-05-01T02:02:00Z,30.4367,-88.0117,2.935,9.34,1111122 
DISL,ioos:station:DISL:MBLA:1,2009-05-01T02:05:00Z,30.4367,-88.0117,2.476,9.48,1111122 
DISL,ioos:station:DISL:MBLA:1,2009-05-01T02:07:00Z,30.4367,-88.0117,2.083,9.66,1111122 
DISL,ioos:station:DISL:MBLA:1,2009-05-01T02:10:00Z,30.4367,-88.0117,1.461,9.59,1111122 
DISL,ioos:station:DISL:MBLA:1,2009-05-01T02:12:00Z,30.4367,-88.0117,0.914,9.76,1111122 
DISL,ioos:station:DISL:MBLA:1,2009-05-01T02:15:00Z,30.4367,-88.0117,0.431,9.77,1111122 
DISL,ioos:station:DISL:MBLA:1,2009-05-01T03:02:00Z,30.4367,-88.0117,2.968,9.02,1111122 
DISL,ioos:station:DISL:MBLA:1,2009-05-01T03:05:00Z,30.4367,-88.0117,2.52,9.49,1111122 
DISL,ioos:station:DISL:MBLA:1,2009-05-01T03:07:00Z,30.4367,-88.0117,1.897,9.56,1111122 
DISL,ioos:station:DISL:MBLA:1,2009-05-01T03:10:00Z,30.4367,-88.0117,1.568,9.47,1111122 
DISL,ioos:station:DISL:MBLA:1,2009-05-01T03:12:00Z,30.4367,-88.0117,0.933,9.55,1111122 
DISL,ioos:station:DISL:MBLA:1,2009-05-01T03:15:00Z,30.4367,-88.0117,0.364,9.62,1111122 
DISL,ioos:station:DISL:MBLA:1,2009-05-01T04:02:00Z,30.4367,-88.0117,2.955,8.14,1111122 
DISL,ioos:station:DISL:MBLA:1,2009-05-01T04:05:00Z,30.4367,-88.0117,2.487,8.71,1111122 
DISL,ioos:station:DISL:MBLA:1,2009-05-01T04:07:00Z,30.4367,-88.0117,1.974,8.95,1111122 
DISL,ioos:station:DISL:MBLA:1,2009-05-01T04:10:00Z,30.4367,-88.0117,1.511,8.88,1111122 
DISL,ioos:station:DISL:MBLA:1,2009-05-01T04:12:00Z,30.4367,-88.0117,1.045,9.01,1111122 
DISL,ioos:station:DISL:MBLA:1,2009-05-01T04:15:00Z,30.4367,-88.0117,0.493,8.98,1111122 
DISL,ioos:station:DISL:MBLA:1,2009-05-01T05:02:00Z,30.4367,-88.0117,3.003,7.72,1111122 
DISL,ioos:station:DISL:MBLA:1,2009-05-01T05:05:00Z,30.4367,-88.0117,2.495,7.94,1111122 
DISL,ioos:station:DISL:MBLA:1,2009-05-01T05:07:00Z,30.4367,-88.0117,1.952,8.19,1111122 
DISL,ioos:station:DISL:MBLA:1,2009-05-01T05:10:00Z,30.4367,-88.0117,1.467,8.18,1111122 
DISL,ioos:station:DISL:MBLA:1,2009-05-01T05:12:00Z,30.4367,-88.0117,1.093,8.2,1111122 
DISL,ioos:station:DISL:MBLA:1,2009-05-01T05:15:00Z,30.4367,-88.0117,0.404,8.28,1111122 
DISL,ioos:station:DISL:MBLA:1,2009-05-01T06:02:00Z,30.4367,-88.0117,2.93,7.18,1111122 
DISL,ioos:station:DISL:MBLA:1,2009-05-01T06:05:00Z,30.4367,-88.0117,2.491,7.83,1111122 
DISL,ioos:station:DISL:MBLA:1,2009-05-01T06:07:00Z,30.4367,-88.0117,1.993,8.05,1111122 
DISL,ioos:station:DISL:MBLA:1,2009-05-01T06:10:00Z,30.4367,-88.0117,1.321,8.2,1111122 
DISL,ioos:station:DISL:MBLA:1,2009-05-01T06:12:00Z,30.4367,-88.0117,0.958,8.13,1111122 
DISL,ioos:station:DISL:MBLA:1,2009-05-01T06:14:00Z,30.4367,-88.0117,0.405,8.27,1111122 
DISL,ioos:station:DISL:MBLA:1,2009-05-01T07:02:00Z,30.4367,-88.0117,2.995,7.0,1111122 
DISL,ioos:station:DISL:MBLA:1,2009-05-01T07:05:00Z,30.4367,-88.0117,2.539,7.65,1111122 
DISL,ioos:station:DISL:MBLA:1,2009-05-01T07:07:00Z,30.4367,-88.0117,2.085,7.88,1111122 
DISL,ioos:station:DISL:MBLA:1,2009-05-01T07:10:00Z,30.4367,-88.0117,1.446,8.06,1111122 
DISL,ioos:station:DISL:MBLA:1,2009-05-01T07:13:00Z,30.4367,-88.0117,1.003,8.2,1111122 
DISL,ioos:station:DISL:MBLA:1,2009-05-01T07:15:00Z,30.4367,-88.0117,0.539,8.22,1111122 
DISL,ioos:station:DISL:MBLA:1,2009-05-01T08:02:00Z,30.4367,-88.0117,2.99,7.22,1111122 
DISL,ioos:station:DISL:MBLA:1,2009-05-01T08:05:00Z,30.4367,-88.0117,2.397,7.79,1111122 
DISL,ioos:station:DISL:MBLA:1,2009-05-01T08:07:00Z,30.4367,-88.0117,1.965,8.1,1111122 
DISL,ioos:station:DISL:MBLA:1,2009-05-01T08:10:00Z,30.4367,-88.0117,1.489,8.14,1111122 
DISL,ioos:station:DISL:MBLA:1,2009-05-01T08:12:00Z,30.4367,-88.0117,1.011,8.11,1111122 
DISL,ioos:station:DISL:MBLA:1,2009-05-01T08:14:00Z,30.4367,-88.0117,0.502,8.27,1111122 
DISL,ioos:station:DISL:MBLA:1,2009-05-01T09:02:00Z,30.4367,-88.0117,2.986,7.32,1111122 
DISL,ioos:station:DISL:MBLA:1,2009-05-01T09:05:00Z,30.4367,-88.0117,2.486,7.75,1111122 
DISL,ioos:station:DISL:MBLA:1,2009-05-01T09:07:00Z,30.4367,-88.0117,1.944,7.96,1111122 
DISL,ioos:station:DISL:MBLA:1,2009-05-01T09:10:00Z,30.4367,-88.0117,1.486,7.9,1111122 
DISL,ioos:station:DISL:MBLA:1,2009-05-01T09:12:00Z,30.4367,-88.0117,0.976,8.11,1111122 
DISL,ioos:station:DISL:MBLA:1,2009-05-01T09:15:00Z,30.4367,-88.0117,0.599,8.07,1111122 
DISL,ioos:station:DISL:MBLA:1,2009-05-01T10:02:00Z,30.4367,-88.0117,2.943,7.32,1111122 
DISL,ioos:station:DISL:MBLA:1,2009-05-01T10:05:00Z,30.4367,-88.0117,2.492,7.55,1111122 
DISL,ioos:station:DISL:MBLA:1,2009-05-01T10:07:00Z,30.4367,-88.0117,1.956,7.8,1111122 
DISL,ioos:station:DISL:MBLA:1,2009-05-01T10:10:00Z,30.4367,-88.0117,1.482,7.86,1111122 
DISL,ioos:station:DISL:MBLA:1,2009-05-01T10:12:00Z,30.4367,-88.0117,0.919,7.91,1111122 
DISL,ioos:station:DISL:MBLA:1,2009-05-01T10:14:00Z,30.4367,-88.0117,0.443,7.97,1111122 
DISL,ioos:station:DISL:MBLA:1,2009-05-01T11:02:00Z,30.4367,-88.0117,2.98,7.46,1111122 
DISL,ioos:station:DISL:MBLA:1,2009-05-01T11:05:00Z,30.4367,-88.0117,2.468,7.46,1111122 
DISL,ioos:station:DISL:MBLA:1,2009-05-01T11:07:00Z,30.4367,-88.0117,1.925,7.78,1111122 
DISL,ioos:station:DISL:MBLA:1,2009-05-01T11:10:00Z,30.4367,-88.0117,1.431,7.81,1111122 
DISL,ioos:station:DISL:MBLA:1,2009-05-01T11:12:00Z,30.4367,-88.0117,0.985,7.91,1111122 
DISL,ioos:station:DISL:MBLA:1,2009-05-01T11:14:00Z,30.4367,-88.0117,0.399,8.07,1111122 
DISL,ioos:station:DISL:MBLA:1,2009-05-01T12:02:00Z,30.4367,-88.0117,2.956,7.26,1111122 
DISL,ioos:station:DISL:MBLA:1,2009-05-01T12:05:00Z,30.4367,-88.0117,2.505,7.54,1111122 
DISL,ioos:station:DISL:MBLA:1,2009-05-01T12:07:00Z,30.4367,-88.0117,1.967,7.82,1111122 
DISL,ioos:station:DISL:MBLA:1,2009-05-01T12:10:00Z,30.4367,-88.0117,1.576,7.82,1111122 
DISL,ioos:station:DISL:MBLA:1,2009-05-01T12:12:00Z,30.4367,-88.0117,0.972,8.03,1111122 
DISL,ioos:station:DISL:MBLA:1,2009-05-01T12:15:00Z,30.4367,-88.0117,0.547,8.13,1111122 
DISL,ioos:station:DISL:MBLA:1,2009-05-01T13:02:00Z,30.4367,-88.0117,3.026,7.19,1111122 
DISL,ioos:station:DISL:MBLA:1,2009-05-01T13:05:00Z,30.4367,-88.0117,2.484,7.2,1111122 
DISL,ioos:station:DISL:MBLA:1,2009-05-01T13:07:00Z,30.4367,-88.0117,1.996,7.49,1111122 
DISL,ioos:station:DISL:MBLA:1,2009-05-01T13:10:00Z,30.4367,-88.0117,1.432,7.91,1111122 
DISL,ioos:station:DISL:MBLA:1,2009-05-01T13:12:00Z,30.4367,-88.0117,0.944,7.91,1111122 
DISL,ioos:station:DISL:MBLA:1,2009-05-01T13:14:00Z,30.4367,-88.0117,0.54,8.19,1111122 
DISL,ioos:station:DISL:MBLA:1,2009-05-01T14:02:00Z,30.4367,-88.0117,2.998,7.57,1111122 
DISL,ioos:station:DISL:MBLA:1,2009-05-01T14:05:00Z,30.4367,-88.0117,2.443,7.57,1111122 
DISL,ioos:station:DISL:MBLA:1,2009-05-01T14:07:00Z,30.4367,-88.0117,1.952,7.66,1111122 
DISL,ioos:station:DISL:MBLA:1,2009-05-01T14:10:00Z,30.4367,-88.0117,1.36,8.25,1111122 
DISL,ioos:station:DISL:MBLA:1,2009-05-01T14:12:00Z,30.4367,-88.0117,0.846,8.4,1111122 
DISL,ioos:station:DISL:MBLA:1,2009-05-01T14:15:00Z,30.4367,-88.0117,0.578,8.51,1111122 
DISL,ioos:station:DISL:MBLA:1,2009-05-01T15:02:00Z,30.4367,-88.0117,3.042,7.35,1111122 
DISL,ioos:station:DISL:MBLA:1,2009-05-01T15:05:00Z,30.4367,-88.0117,2.459,7.66,1111122 
DISL,ioos:station:DISL:MBLA:1,2009-05-01T15:07:00Z,30.4367,-88.0117,1.937,7.6,1111122 
DISL,ioos:station:DISL:MBLA:1,2009-05-01T15:10:00Z,30.4367,-88.0117,1.402,7.62,1111122 
DISL,ioos:station:DISL:MBLA:1,2009-05-01T15:12:00Z,30.4367,-88.0117,1.04,8.68,1111122 
DISL,ioos:station:DISL:MBLA:1,2009-05-01T15:15:00Z,30.4367,-88.0117,0.353,8.73,1111122 
DISL,ioos:station:DISL:MBLA:1,2009-05-01T16:02:00Z,30.4367,-88.0117,3.057,7.46,1111122 
DISL,ioos:station:DISL:MBLA:1,2009-05-01T16:05:00Z,30.4367,-88.0117,2.57,7.1,1111122 
DISL,ioos:station:DISL:MBLA:1,2009-05-01T16:08:00Z,30.4367,-88.0117,2.058,7.65,1111122 
DISL,ioos:station:DISL:MBLA:1,2009-05-01T16:10:00Z,30.4367,-88.0117,1.54,8.11,1111122 
DISL,ioos:station:DISL:MBLA:1,2009-05-01T16:13:00Z,30.4367,-88.0117,0.943,8.59,1111122 
DISL,ioos:station:DISL:MBLA:1,2009-05-01T16:15:00Z,30.4367,-88.0117,0.416,8.96,1111122 
DISL,ioos:station:DISL:MBLA:1,2009-05-01T17:02:00Z,30.4367,-88.0117,3.04,7.19,1111122 
DISL,ioos:station:DISL:MBLA:1,2009-05-01T17:05:00Z,30.4367,-88.0117,2.461,7.64,1111122 
DISL,ioos:station:DISL:MBLA:1,2009-05-01T17:07:00Z,30.4367,-88.0117,1.947,7.96,1111122 
DISL,ioos:station:DISL:MBLA:1,2009-05-01T17:10:00Z,30.4367,-88.0117,1.406,8.46,1111122 
DISL,ioos:station:DISL:MBLA:1,2009-05-01T17:12:00Z,30.4367,-88.0117,1.044,8.95,1111122 
DISL,ioos:station:DISL:MBLA:1,2009-05-01T17:15:00Z,30.4367,-88.0117,0.445,9.4,1111122 
DISL,ioos:station:DISL:MBLA:1,2009-05-01T18:02:00Z,30.4367,-88.0117,2.983,7.57,1111122 
DISL,ioos:station:DISL:MBLA:1,2009-05-01T18:05:00Z,30.4367,-88.0117,2.571,7.98,1111122 
DISL,ioos:station:DISL:MBLA:1,2009-05-01T18:08:00Z,30.4367,-88.0117,2.07,8.57,1111122 
DISL,ioos:station:DISL:MBLA:1,2009-05-01T18:10:00Z,30.4367,-88.0117,1.469,9.37,1111122 
DISL,ioos:station:DISL:MBLA:1,2009-05-01T18:12:00Z,30.4367,-88.0117,0.924,9.84,1111122 
DISL,ioos:station:DISL:MBLA:1,2009-05-01T18:15:00Z,30.4367,-88.0117,0.578,9.77,1111122 
DISL,ioos:station:DISL:MBLA:1,2009-05-01T19:02:00Z,30.4367,-88.0117,3.076,7.89,1111122 
DISL,ioos:station:DISL:MBLA:1,2009-05-01T19:05:00Z,30.4367,-88.0117,2.432,9.49,1111122 
DISL,ioos:station:DISL:MBLA:1,2009-05-01T19:07:00Z,30.4367,-88.0117,2.076,9.81,1111122 
DISL,ioos:station:DISL:MBLA:1,2009-05-01T19:10:00Z,30.4367,-88.0117,1.416,10.04,1111122 
DISL,ioos:station:DISL:MBLA:1,2009-05-01T19:12:00Z,30.4367,-88.0117,0.939,10.19,1111122 
DISL,ioos:station:DISL:MBLA:1,2009-05-01T19:15:00Z,30.4367,-88.0117,0.629,10.3,1111122 
DISL,ioos:station:DISL:MBLA:1,2009-05-01T20:02:00Z,30.4367,-88.0117,3.076,8.22,1111122 
DISL,ioos:station:DISL:MBLA:1,2009-05-01T20:05:00Z,30.4367,-88.0117,2.417,9.42,1111122 
DISL,ioos:station:DISL:MBLA:1,2009-05-01T20:07:00Z,30.4367,-88.0117,2.071,9.59,1111122 
DISL,ioos:station:DISL:MBLA:1,2009-05-01T20:10:00Z,30.4367,-88.0117,1.565,9.5,1111122 
DISL,ioos:station:DISL:MBLA:1,2009-05-01T20:13:00Z,30.4367,-88.0117,1.055,9.95,1111122 
DISL,ioos:station:DISL:MBLA:1,2009-05-01T20:15:00Z,30.4367,-88.0117,0.35,9.94,1111122 
DISL,ioos:station:DISL:MBLA:1,2009-05-01T21:02:00Z,30.4367,-88.0117,3.044,8.12,1111122 
DISL,ioos:station:DISL:MBLA:1,2009-05-01T21:05:00Z,30.4367,-88.0117,2.567,9.13,1111122 
DISL,ioos:station:DISL:MBLA:1,2009-05-01T21:07:00Z,30.4367,-88.0117,1.903,9.33,1111122 
DISL,ioos:station:DISL:MBLA:1,2009-05-01T21:10:00Z,30.4367,-88.0117,1.554,9.47,1111122 
DISL,ioos:station:DISL:MBLA:1,2009-05-01T21:12:00Z,30.4367,-88.0117,0.901,9.78,1111122 
DISL,ioos:station:DISL:MBLA:1,2009-05-01T21:15:00Z,30.4367,-88.0117,0.391,9.85,1111122 
DISL,ioos:station:DISL:MBLA:1,2009-05-01T22:02:00Z,30.4367,-88.0117,3.054,8.41,1111122 
DISL,ioos:station:DISL:MBLA:1,2009-05-01T22:05:00Z,30.4367,-88.0117,2.49,8.91,1111122 
DISL,ioos:station:DISL:MBLA:1,2009-05-01T22:07:00Z,30.4367,-88.0117,1.902,9.36,1111122 
DISL,ioos:station:DISL:MBLA:1,2009-05-01T22:10:00Z,30.4367,-88.0117,1.542,9.28,1111122 
DISL,ioos:station:DISL:MBLA:1,2009-05-01T22:12:00Z,30.4367,-88.0117,0.972,9.61,1111122 
DISL,ioos:station:DISL:MBLA:1,2009-05-01T22:15:00Z,30.4367,-88.0117,0.284,9.69,1111122 
DISL,ioos:station:DISL:MBLA:1,2009-05-01T23:02:00Z,30.4367,-88.0117,3.028,7.87,1111122 
DISL,ioos:station:DISL:MBLA:1,2009-05-01T23:05:00Z,30.4367,-88.0117,2.467,8.52,1111122 
DISL,ioos:station:DISL:MBLA:1,2009-05-01T23:07:00Z,30.4367,-88.0117,1.951,8.8,1111122 
DISL,ioos:station:DISL:MBLA:1,2009-05-01T23:10:00Z,30.4367,-88.0117,1.433,9.1,1111122 
DISL,ioos:station:DISL:MBLA:1,2009-05-01T23:12:00Z,30.4367,-88.0117,1.174,9.28,1111122 
DISL,ioos:station:DISL:MBLA:1,2009-05-01T23:15:00Z,30.4367,-88.0117,0.45,9.41,1111122 
DISL,ioos:station:DISL:MBLA:1,2009-05-02T00:02:00Z,30.4367,-88.0117,2.992,8.49,1111122 
DISL,ioos:station:DISL:MBLA:1,2009-05-02T00:05:00Z,30.4367,-88.0117,2.442,8.59,1111122 
DISL,ioos:station:DISL:MBLA:1,2009-05-02T00:07:00Z,30.4367,-88.0117,1.945,8.65,1111122 
DISL,ioos:station:DISL:MBLA:1,2009-05-02T00:10:00Z,30.4367,-88.0117,1.446,8.85,1111122 
DISL,ioos:station:DISL:MBLA:1,2009-05-02T00:12:00Z,30.4367,-88.0117,0.973,8.89,1111122 
DISL,ioos:station:DISL:MBLA:1,2009-05-02T00:15:00Z,30.4367,-88.0117,0.59,8.78,1111122 
DISL,ioos:station:DISL:MBLA:1,2009-05-02T01:02:00Z,30.4367,-88.0117,3.036,7.75,1111122 
DISL,ioos:station:DISL:MBLA:1,2009-05-02T01:05:00Z,30.4367,-88.0117,2.434,7.96,1111122 
DISL,ioos:station:DISL:MBLA:1,2009-05-02T01:07:00Z,30.4367,-88.0117,1.957,8.29,1111122 
DISL,ioos:station:DISL:MBLA:1,2009-05-02T01:10:00Z,30.4367,-88.0117,1.566,8.62,1111122 
DISL,ioos:station:DISL:MBLA:1,2009-05-02T01:12:00Z,30.4367,-88.0117,0.932,8.79,1111122 
DISL,ioos:station:DISL:MBLA:1,2009-05-02T01:15:00Z,30.4367,-88.0117,0.447,8.82,1111122 
DISL,ioos:station:DISL:MBLA:1,2009-05-02T02:02:00Z,30.4367,-88.0117,2.942,8.14,1111122 
DISL,ioos:station:DISL:MBLA:1,2009-05-02T02:05:00Z,30.4367,-88.0117,2.473,8.23,1111122 
DISL,ioos:station:DISL:MBLA:1,2009-05-02T02:07:00Z,30.4367,-88.0117,1.997,8.12,1111122 
DISL,ioos:station:DISL:MBLA:1,2009-05-02T02:10:00Z,30.4367,-88.0117,1.516,8.15,1111122 
DISL,ioos:station:DISL:MBLA:1,2009-05-02T02:12:00Z,30.4367,-88.0117,0.903,8.27,1111122 
DISL,ioos:station:DISL:MBLA:1,2009-05-02T02:14:00Z,30.4367,-88.0117,0.483,8.19,1111122 
DISL,ioos:station:DISL:MBLA:1,2009-05-02T03:02:00Z,30.4367,-88.0117,3.015,7.82,1111122 
DISL,ioos:station:DISL:MBLA:1,2009-05-02T03:05:00Z,30.4367,-88.0117,2.495,7.94,1111122 
DISL,ioos:station:DISL:MBLA:1,2009-05-02T03:07:00Z,30.4367,-88.0117,1.952,7.98,1111122 
DISL,ioos:station:DISL:MBLA:1,2009-05-02T03:10:00Z,30.4367,-88.0117,1.418,8.08,1111122 
DISL,ioos:station:DISL:MBLA:1,2009-05-02T03:12:00Z,30.4367,-88.0117,1.002,8.17,1111122 
DISL,ioos:station:DISL:MBLA:1,2009-05-02T03:15:00Z,30.4367,-88.0117,0.515,8.24,1111122 
DISL,ioos:station:DISL:MBLA:1,2009-05-02T04:02:00Z,30.4367,-88.0117,2.972,7.95,1111122 
DISL,ioos:station:DISL:MBLA:1,2009-05-02T04:05:00Z,30.4367,-88.0117,2.424,8.12,1111122 
DISL,ioos:station:DISL:MBLA:1,2009-05-02T04:07:00Z,30.4367,-88.0117,2.062,8.25,1111122 
DISL,ioos:station:DISL:MBLA:1,2009-05-02T04:10:00Z,30.4367,-88.0117,1.462,8.23,1111122 
DISL,ioos:station:DISL:MBLA:1,2009-05-02T04:12:00Z,30.4367,-88.0117,0.963,8.34,1111122 
DISL,ioos:station:DISL:MBLA:1,2009-05-02T04:15:00Z,30.4367,-88.0117,0.401,8.34,1111122 
DISL,ioos:station:DISL:MBLA:1,2009-05-02T05:02:00Z,30.4367,-88.0117,2.876,7.93,1111122 
DISL,ioos:station:DISL:MBLA:1,2009-05-02T05:05:00Z,30.4367,-88.0117,2.425,8.13,1111122 
DISL,ioos:station:DISL:MBLA:1,2009-05-02T05:07:00Z,30.4367,-88.0117,1.96,8.28,1111122 
DISL,ioos:station:DISL:MBLA:1,2009-05-02T05:10:00Z,30.4367,-88.0117,1.492,8.38,1111122 
DISL,ioos:station:DISL:MBLA:1,2009-05-02T05:12:00Z,30.4367,-88.0117,0.956,8.38,1111122 
DISL,ioos:station:DISL:MBLA:1,2009-05-02T05:14:00Z,30.4367,-88.0117,0.475,8.36,1111122 
DISL,ioos:station:DISL:MBLA:1,2009-05-02T06:02:00Z,30.4367,-88.0117,2.994,8.15,1111122 
DISL,ioos:station:DISL:MBLA:1,2009-05-02T06:05:00Z,30.4367,-88.0117,2.476,8.26,1111122 
DISL,ioos:station:DISL:MBLA:1,2009-05-02T06:07:00Z,30.4367,-88.0117,1.934,8.18,1111122 
DISL,ioos:station:DISL:MBLA:1,2009-05-02T06:10:00Z,30.4367,-88.0117,1.548,8.2,1111122 
DISL,ioos:station:DISL:MBLA:1,2009-05-02T06:12:00Z,30.4367,-88.0117,0.936,8.34,1111122 
DISL,ioos:station:DISL:MBLA:1,2009-05-02T06:15:00Z,30.4367,-88.0117,0.389,8.3,1111122 
DISL,ioos:station:DISL:MBLA:1,2009-05-02T07:02:00Z,30.4367,-88.0117,2.941,8.06,1111122 
DISL,ioos:station:DISL:MBLA:1,2009-05-02T07:05:00Z,30.4367,-88.0117,2.482,8.03,1111122 
DISL,ioos:station:DISL:MBLA:1,2009-05-02T07:07:00Z,30.4367,-88.0117,2.093,8.18,1111122 
DISL,ioos:station:DISL:MBLA:1,2009-05-02T07:10:00Z,30.4367,-88.0117,1.497,8.03,1111122 
DISL,ioos:station:DISL:MBLA:1,2009-05-02T07:12:00Z,30.4367,-88.0117,0.996,8.29,1111122 
DISL,ioos:station:DISL:MBLA:1,2009-05-02T07:15:00Z,30.4367,-88.0117,0.467,8.25,1111122 
DISL,ioos:station:DISL:MBLA:1,2009-05-02T08:02:00Z,30.4367,-88.0117,2.947,7.67,1111122 
DISL,ioos:station:DISL:MBLA:1,2009-05-02T08:05:00Z,30.4367,-88.0117,2.492,7.8,1111122 
DISL,ioos:station:DISL:MBLA:1,2009-05-02T08:07:00Z,30.4367,-88.0117,2.028,7.93,1111122 
DISL,ioos:station:DISL:MBLA:1,2009-05-02T08:10:00Z,30.4367,-88.0117,1.488,7.92,1111122 
DISL,ioos:station:DISL:MBLA:1,2009-05-02T08:12:00Z,30.4367,-88.0117,0.949,8.16,1111122 
DISL,ioos:station:DISL:MBLA:1,2009-05-02T08:14:00Z,30.4367,-88.0117,0.461,8.23,1111122 
DISL,ioos:station:DISL:MBLA:1,2009-05-02T09:02:00Z,30.4367,-88.0117,2.948,7.5,1111122 
DISL,ioos:station:DISL:MBLA:1,2009-05-02T09:05:00Z,30.4367,-88.0117,2.506,7.63,1111122 
DISL,ioos:station:DISL:MBLA:1,2009-05-02T09:07:00Z,30.4367,-88.0117,2.248,7.73,1111122 
DISL,ioos:station:DISL:MBLA:1,2009-05-02T09:10:00Z,30.4367,-88.0117,1.46,7.77,1111122 
DISL,ioos:station:DISL:MBLA:1,2009-05-02T09:12:00Z,30.4367,-88.0117,0.979,7.92,1111122 
DISL,ioos:station:DISL:MBLA:1,2009-05-02T09:15:00Z,30.4367,-88.0117,0.399,8.04,1111122 
DISL,ioos:station:DISL:MBLA:1,2009-05-02T10:02:00Z,30.4367,-88.0117,2.979,7.01,1111122 
DISL,ioos:station:DISL:MBLA:1,2009-05-02T10:05:00Z,30.4367,-88.0117,2.498,7.59,1111122 
DISL,ioos:station:DISL:MBLA:1,2009-05-02T10:07:00Z,30.4367,-88.0117,1.958,7.72,1111122 
DISL,ioos:station:DISL:MBLA:1,2009-05-02T10:10:00Z,30.4367,-88.0117,1.491,7.55,1111122 
DISL,ioos:station:DISL:MBLA:1,2009-05-02T10:12:00Z,30.4367,-88.0117,0.959,7.71,1111122 
DISL,ioos:station:DISL:MBLA:1,2009-05-02T10:14:00Z,30.4367,-88.0117,0.448,7.9,1111122 
DISL,ioos:station:DISL:MBLA:1,2009-05-02T11:02:00Z,30.4367,-88.0117,2.977,7.14,1111122 
DISL,ioos:station:DISL:MBLA:1,2009-05-02T11:05:00Z,30.4367,-88.0117,2.468,7.45,1111122 
DISL,ioos:station:DISL:MBLA:1,2009-05-02T11:07:00Z,30.4367,-88.0117,2.008,7.66,1111122 
DISL,ioos:station:DISL:MBLA:1,2009-05-02T11:10:00Z,30.4367,-88.0117,1.411,7.71,1111122 
DISL,ioos:station:DISL:MBLA:1,2009-05-02T11:12:00Z,30.4367,-88.0117,0.95,7.74,1111122 
DISL,ioos:station:DISL:MBLA:1,2009-05-02T11:14:00Z,30.4367,-88.0117,0.416,7.9,1111122 
DISL,ioos:station:DISL:MBLA:1,2009-05-02T12:02:00Z,30.4367,-88.0117,2.937,7.18,1111122 
DISL,ioos:station:DISL:MBLA:1,2009-05-02T12:05:00Z,30.4367,-88.0117,2.419,7.5,1111122 
DISL,ioos:station:DISL:MBLA:1,2009-05-02T12:07:00Z,30.4367,-88.0117,1.943,7.82,1111122 
DISL,ioos:station:DISL:MBLA:1,2009-05-02T12:10:00Z,30.4367,-88.0117,1.493,7.68,1111122 
DISL,ioos:station:DISL:MBLA:1,2009-05-02T12:12:00Z,30.4367,-88.0117,1.068,7.93,1111122 
DISL,ioos:station:DISL:MBLA:1,2009-05-02T12:15:00Z,30.4367,-88.0117,0.504,7.99,1111122 
DISL,ioos:station:DISL:MBLA:1,2009-05-02T13:02:00Z,30.4367,-88.0117,2.98,7.6,1111122 
DISL,ioos:station:DISL:MBLA:1,2009-05-02T13:05:00Z,30.4367,-88.0117,2.455,7.68,1111122 
DISL,ioos:station:DISL:MBLA:1,2009-05-02T13:07:00Z,30.4367,-88.0117,1.978,7.89,1111122 
DISL,ioos:station:DISL:MBLA:1,2009-05-02T13:10:00Z,30.4367,-88.0117,1.499,8.05,1111122 
DISL,ioos:station:DISL:MBLA:1,2009-05-02T13:12:00Z,30.4367,-88.0117,0.955,8.14,1111122 
DISL,ioos:station:DISL:MBLA:1,2009-05-02T13:15:00Z,30.4367,-88.0117,0.519,8.26,1111122 
DISL,ioos:station:DISL:MBLA:1,2009-05-02T14:02:00Z,30.4367,-88.0117,2.975,7.63,1111122 
DISL,ioos:station:DISL:MBLA:1,2009-05-02T14:05:00Z,30.4367,-88.0117,2.494,7.8,1111122 
DISL,ioos:station:DISL:MBLA:1,2009-05-02T14:07:00Z,30.4367,-88.0117,1.925,8.1,1111122 
DISL,ioos:station:DISL:MBLA:1,2009-05-02T14:10:00Z,30.4367,-88.0117,1.418,8.28,1111122 
DISL,ioos:station:DISL:MBLA:1,2009-05-02T14:12:00Z,30.4367,-88.0117,1.079,8.33,1111122 
DISL,ioos:station:DISL:MBLA:1,2009-05-02T14:15:00Z,30.4367,-88.0117,0.454,8.3,1111122 
DISL,ioos:station:DISL:MBLA:1,2009-05-02T15:02:00Z,30.4367,-88.0117,3.017,7.86,1111122 
DISL,ioos:station:DISL:MBLA:1,2009-05-02T15:05:00Z,30.4367,-88.0117,2.441,7.77,1111122 
DISL,ioos:station:DISL:MBLA:1,2009-05-02T15:07:00Z,30.4367,-88.0117,2.09,8.0,1111122 
DISL,ioos:station:DISL:MBLA:1,2009-05-02T15:10:00Z,30.4367,-88.0117,1.417,8.06,1111122 
DISL,ioos:station:DISL:MBLA:1,2009-05-02T15:12:00Z,30.4367,-88.0117,1.07,8.45,1111122 
DISL,ioos:station:DISL:MBLA:1,2009-05-02T15:15:00Z,30.4367,-88.0117,0.479,8.63,1111122 
DISL,ioos:station:DISL:MBLA:1,2009-05-02T16:02:00Z,30.4367,-88.0117,3.041,7.94,1111122 
DISL,ioos:station:DISL:MBLA:1,2009-05-02T16:05:00Z,30.4367,-88.0117,2.554,7.8,1111122 
DISL,ioos:station:DISL:MBLA:1,2009-05-02T16:07:00Z,30.4367,-88.0117,1.889,8.11,1111122 
DISL,ioos:station:DISL:MBLA:1,2009-05-02T16:10:00Z,30.4367,-88.0117,1.536,8.4,1111122 
DISL,ioos:station:DISL:MBLA:1,2009-05-02T16:12:00Z,30.4367,-88.0117,0.951,8.92,1111122 
DISL,ioos:station:DISL:MBLA:1,2009-05-02T16:15:00Z,30.4367,-88.0117,0.4,9.02,1111122 
DISL,ioos:station:DISL:MBLA:1,2009-05-02T17:02:00Z,30.4367,-88.0117,3.021,8.18,1111122 
DISL,ioos:station:DISL:MBLA:1,2009-05-02T17:05:00Z,30.4367,-88.0117,2.53,8.29,1111122 
DISL,ioos:station:DISL:MBLA:1,2009-05-02T17:07:00Z,30.4367,-88.0117,1.935,8.6,1111122 
DISL,ioos:station:DISL:MBLA:1,2009-05-02T17:10:00Z,30.4367,-88.0117,1.501,8.66,1111122 
DISL,ioos:station:DISL:MBLA:1,2009-05-02T17:13:00Z,30.4367,-88.0117,0.906,8.92,1111122 
DISL,ioos:station:DISL:MBLA:1,2009-05-02T17:15:00Z,30.4367,-88.0117,0.55,9.16,1111122 
DISL,ioos:station:DISL:MBLA:1,2009-05-02T18:03:00Z,30.4367,-88.0117,3.09,8.43,1111122 
DISL,ioos:station:DISL:MBLA:1,2009-05-02T18:05:00Z,30.4367,-88.0117,2.343,8.73,1111122 
DISL,ioos:station:DISL:MBLA:1,2009-05-02T18:08:00Z,30.4367,-88.0117,1.905,8.88,1111122 
DISL,ioos:station:DISL:MBLA:1,2009-05-02T18:10:00Z,30.4367,-88.0117,1.535,9.18,1111122 
DISL,ioos:station:DISL:MBLA:1,2009-05-02T18:13:00Z,30.4367,-88.0117,0.964,9.43,1111122 
DISL,ioos:station:DISL:MBLA:1,2009-05-02T18:15:00Z,30.4367,-88.0117,0.428,9.51,1111122 
DISL,ioos:station:DISL:MBLA:1,2009-05-02T19:02:00Z,30.4367,-88.0117,3.02,7.83,1111122 
DISL,ioos:station:DISL:MBLA:1,2009-05-02T19:05:00Z,30.4367,-88.0117,2.431,8.51,1111122 
DISL,ioos:station:DISL:MBLA:1,2009-05-02T19:07:00Z,30.4367,-88.0117,1.93,9.16,1111122 
DISL,ioos:station:DISL:MBLA:1,2009-05-02T19:10:00Z,30.4367,-88.0117,1.577,9.26,1111122 
DISL,ioos:station:DISL:MBLA:1,2009-05-02T19:12:00Z,30.4367,-88.0117,1.092,9.38,1111122 
DISL,ioos:station:DISL:MBLA:1,2009-05-02T19:15:00Z,30.4367,-88.0117,0.22,9.45,1111122 
DISL,ioos:station:DISL:MBLA:1,2009-05-02T20:02:00Z,30.4367,-88.0117,3.072,8.21,1111122 
DISL,ioos:station:DISL:MBLA:1,2009-05-02T20:05:00Z,30.4367,-88.0117,2.482,8.56,1111122 
DISL,ioos:station:DISL:MBLA:1,2009-05-02T20:07:00Z,30.4367,-88.0117,2.056,8.95,1111122 
DISL,ioos:station:DISL:MBLA:1,2009-05-02T20:10:00Z,30.4367,-88.0117,1.473,9.18,1111122 
DISL,ioos:station:DISL:MBLA:1,2009-05-02T20:13:00Z,30.4367,-88.0117,1.045,9.25,1111122 
DISL,ioos:station:DISL:MBLA:1,2009-05-02T20:15:00Z,30.4367,-88.0117,0.439,9.4,1111122 
DISL,ioos:station:DISL:MBLA:1,2009-05-02T21:02:00Z,30.4367,-88.0117,3.019,7.75,1111122 
DISL,ioos:station:DISL:MBLA:1,2009-05-02T21:05:00Z,30.4367,-88.0117,2.438,8.7,1111122 